FW9692 Weather Reports


time (UTC)temp
F
wind
direction
speed
knots
gust
knots
rain 1hr
in
rain 24hr
in
rain mn
in
humidity
%
barometer
mb
20260507161542 56 82 7.8 12.2 0.00 0.00 0.00 65 1008.9
20260507160031 56 65 5.2 12.2 0.00 0.00 0.00 66 1008.9
20260507154528 56 80 6.1 10.4 0.00 0.00 0.00 66 1009.1
20260507153034 55 57 8.7 12.2 0.00 0.00 0.00 66 1009.0
20260507151526 55 79 9.6 13.0 0.00 0.00 0.00 66 1009.0
20260507150031 55 79 8.7 11.3 0.00 0.00 0.00 66 1009.0
20260507144530 55 67 9.6 14.8 0.00 0.00 0.00 66 1009.1
20260507143025 55 79 9.6 13.9 0.00 0.00 0.00 66 1009.1
20260507141521 55 87 9.6 13.0 0.00 0.00 0.00 66 1009.1
20260507140021 55 90 9.6 13.0 0.00 0.00 0.00 67 1009.1
20260507134513 55 76 11.3 14.8 0.00 0.00 0.00 67 1009.1
20260507133010 55 61 12.2 14.8 0.00 0.00 0.00 67 1008.9
20260507131517 55 42 11.3 14.8 0.00 0.00 0.00 67 1008.7
20260507130007 55 44 11.3 15.6 0.00 0.00 0.00 66 1008.5
20260507124513 55 31 12.2 14.8 0.00 0.00 0.00 65 1008.1
20260507123006 55 36 10.4 13.9 0.00 0.00 0.00 64 1008.0
20260507121510 54 22 10.4 13.9 0.00 0.00 0.00 63 1007.8
20260507120006 53 347 10.4 14.8 0.00 0.00 0.00 62 1007.5
20260507114609 53 13 9.6 13.0 0.00 0.00 0.00 62 1007.2
20260507113125 52 13 9.6 13.9 0.00 0.00 0.00 62 1007.0
20260507111557 53 11 12.2 18.2 0.00 0.00 0.00 60 1006.9
20260507110051 53 346 13.0 18.2 0.00 0.00 0.00 60 1006.6
20260507104545 53 11 16.5 20.9 0.00 0.00 0.00 59 1006.5
20260507103049 53 351 14.8 20.9 0.00 0.00 0.00 58 1006.4
20260507101542 53 13 14.8 19.1 0.00 0.00 0.00 58 1006.2
20260507100038 54 15 14.8 19.1 0.00 0.00 0.00 57 1006.0
20260507094549 54 20 16.5 20.9 0.00 0.00 0.00 57 1006.0
20260507093049 54 30 16.5 23.5 0.00 0.00 0.00 56 1005.7
20260507091547 54 23 17.4 23.5 0.00 0.00 0.00 56 1005.4
20260507090042 55 348 18.2 25.2 0.00 0.00 0.00 56 1005.0
20260507084544 55 351 20.9 26.9 0.00 0.00 0.00 55 1004.7
20260507083036 56 11 22.6 31.3 0.00 0.00 0.00 54 1005.0
20260507081539 57 344 17.4 20.0 0.00 0.00 0.00 53 1005.1
20260507080030 57 348 18.2 25.2 0.00 0.00 0.00 52 1004.8
20260507074531 58 24 17.4 22.6 0.00 0.00 0.00 50 1004.9
20260507073025 61 344 20.9 26.9 0.00 0.00 0.00 43 1004.7
20260507071519 69 36 5.2 7.8 0.00 0.00 0.00 26 1003.6
20260507070017 68 191 1.7 6.1 0.00 0.00 0.00 28 1003.4
20260507064514 71 294 4.3 5.2 0.00 0.00 0.00 23 1003.3
20260507063016 71 303 2.6 6.1 0.00 0.00 0.00 23 1003.2
20260507061513 70 291 3.5 6.1 0.00 0.00 0.00 25 1002.9
20260507060011 71 298 3.5 7.0 0.00 0.00 0.00 23 1002.8
20260507054510 72 257 6.1 7.8 0.00 0.00 0.00 23 1002.7
20260507053010 73 273 7.0 9.6 0.00 0.00 0.00 21 1002.7
20260507051510 72 255 4.3 6.1 0.00 0.00 0.00 21 1002.7
20260507050014 74 298 6.1 7.0 0.00 0.00 0.00 21 1002.7
20260507044512 74 310 5.2 7.0 0.00 0.00 0.00 21 1002.5
20260507043019 75 310 4.3 6.1 0.00 0.00 0.00 20 1002.3
20260507041510 75 323 5.2 7.8 0.00 0.00 0.00 19 1002.1
20260507040008 73 9 2.6 5.2 0.00 0.00 0.00 21 1002.1
20260507034532 73 15 0.9 3.5 0.00 0.00 0.00 22 1001.9
20260507033024 73 150 1.7 5.2 0.00 0.00 0.00 23 1001.7
20260507031524 73 300 7.8 10.4 0.00 0.00 0.00 21 1001.4
20260507030024 73 302 8.7 10.4 0.00 0.00 0.00 22 1001.2
20260507024519 74 305 8.7 10.4 0.00 0.00 0.00 21 1000.9
20260507023015 74 298 10.4 13.0 0.00 0.00 0.00 21 1000.7
20260507021515 76 305 10.4 12.2 0.00 0.00 0.00 19 1000.6
20260507020022 77 304 13.9 17.4 0.00 0.00 0.00 18 1000.3
20260507014510 77 298 12.2 14.8 0.00 0.00 0.00 18 1000.1
20260507013010 79 307 13.0 17.4 0.00 0.00 0.00 17 999.9
20260507011512 79 298 17.4 20.9 0.00 0.00 0.00 16 999.5
20260507010011 80 292 13.0 20.0 0.00 0.00 0.00 16 999.4
20260507004610 81 315 14.8 18.2 0.00 0.00 0.00 16 999.0
20260507003006 81 311 12.2 15.6 0.00 0.00 0.00 16 998.7
20260507001519 81 292 19.1 24.3 0.00 0.00 0.00 15 998.8
20260506234511 82 268 11.3 21.7 0.00 0.00 0.00 15 998.7
20260506233012 82 290 13.9 20.0 0.00 0.00 0.00 16 998.7
20260506231510 81 259 13.0 21.7 0.00 0.00 0.00 16 998.7
20260506230009 81 310 20.0 26.1 0.00 0.00 0.00 15 998.7
20260506224604 81 289 18.2 26.1 0.00 0.00 0.00 15 998.8
20260506224501 81 290 20.0 26.1 0.00 0.00 0.00 15 998.7
20260506223103 81 273 14.8 27.8 0.00 0.00 0.00 15 998.8
20260506221617 81 275 15.6 26.9 0.00 0.00 0.00 14 998.8
20260506220100 81 284 15.6 24.3 0.00 0.00 0.00 15 998.8
20260506214512 81 288 17.4 27.8 0.00 0.00 0.00 15 998.9
20260506213016 81 257 18.2 24.3 0.00 0.00 0.00 15 999.0
20260506211509 81 279 13.0 19.1 0.00 0.00 0.00 15 999.1
20260506210009 80 286 14.8 29.5 0.00 0.00 0.00 16 999.2
20260506204505 80 304 20.0 27.8 0.00 0.00 0.00 16 999.4
20260506203008 79 272 20.9 25.2 0.00 0.00 0.00 17 999.5
20260506201504 80 309 20.0 26.1 0.00 0.00 0.00 18 999.6
20260506200003 79 277 16.5 29.5 0.00 0.00 0.00 18 999.8
20260506194601 80 306 20.0 31.3 0.00 0.00 0.00 18 999.8
20260506193105 79 286 22.6 30.4 0.00 0.00 0.00 18 999.9
20260506191556 78 284 14.8 27.8 0.00 0.00 0.00 19 1000.3
20260506190056 77 296 13.0 30.4 0.00 0.00 0.00 20 1000.5
20260506184504 77 293 25.2 30.4 0.00 0.00 0.00 20 1000.9
20260506183109 77 305 14.8 28.7 0.00 0.00 0.00 23 1001.0
20260506181604 77 275 22.6 29.5 0.00 0.00 0.00 21 1000.9
20260506180059 75 279 9.6 13.9 0.00 0.00 0.00 24 1001.3
20260506174543 75 250 2.6 7.0 0.00 0.00 0.00 29 1001.7
20260506173045 74 182 7.0 10.4 0.00 0.00 0.00 29 1001.7
20260506171539 73 26 0.9 5.2 0.00 0.00 0.00 30 1001.9
20260506170044 72 185 0.9 11.3 0.00 0.00 0.00 30 1001.8
20260506164555 71 33 7.8 11.3 0.00 0.00 0.00 33 1001.8
20260506163042 70 346 8.7 13.0 0.00 0.00 0.00 33 1001.8